This demonstration page uses our WeatherBlox Daily Observations layout. Learn more.

Left ArrowRight Arrow

39.51506, -84.39828

Hourly Observations for November 2, 2021

Temp ( °F °C ) Dew Point ( °F °C ) Humidity (%) Winds ( mph kmh ) Pressure ( in mb ) Visibility ( mi km ) Precip ( " mm )
12:15 am 00:15 Cloudy 44 6.5 33 0.5 66 66 WNW 6 9 30.33 1027 10 16 0.00 0.00
12:35 am 00:35 Cloudy 43 6.3 33 0.7 68 68 WNW 5 7 30.33 1027 10 16 0.00 0.00
12:55 am 00:55 Cloudy 43 6.2 33 0.6 68 68 NW 6 9 30.32 1027 10 16 0.00 0.00
1:15 am 01:15 Cloudy 43 6.1 33 0.3 67 67 NW 7 11 30.32 1027 10 16 0.00 0.00
1:35 am 01:35 Cloudy 43 6.1 32 0 65 65 NW 6 9 30.33 1027 10 16 0.00 0.00
1:55 am 01:55 Cloudy 43 5.9 32 0 66 66 WNW 6 9 30.33 1027 10 16 0.00 0.00
2:15 am 02:15 Cloudy 42 5.4 31 -0.3 67 67 WNW 5 7 30.33 1027 10 16 0.00 0.00
2:35 am 02:35 Cloudy 42 5.4 31 -0.4 67 67 WNW 5 7 30.33 1027 10 16 0.00 0.00
2:55 am 02:55 Cloudy 41 5.2 32 -0.2 68 68 WNW 5 7 30.33 1027 10 16 0.00 0.00
3:15 am 03:15 Cloudy 41 4.9 31 -0.5 68 68 WNW 5 7 30.34 1028 10 16 0.00 0.00
3:35 am 03:35 Cloudy 40 4.7 30 -1 67 67 WNW 7 11 30.34 1028 10 16 0.00 0.00
3:55 am 03:55 Cloudy 40 4.2 31 -0.8 70 70 WNW 5 7 30.34 1028 10 16 0.00 0.00
4:15 am 04:15 Cloudy 39 4.1 30 -1 70 70 WNW 7 11 30.34 1028 10 16 0.00 0.00
4:35 am 04:35 Mostly Cloudy 38 3.3 31 -0.8 75 75 WNW 3 6 30.35 1028 10 16 0.00 0.00
4:55 am 04:55 Mostly Cloudy 37 3 31 -0.7 77 77 Calm 30.35 1028 10 16 0.01 0.25
5:15 am 05:15 Partly Cloudy 37 2.6 31 -0.8 79 79 W 3 6 30.35 1028 10 16 0.00 0.00
5:35 am 05:35 Mostly Cloudy 37 2.7 31 -0.7 79 79 Calm 30.35 1028 10 16 0.00 0.00
5:55 am 05:55 Mostly Cloudy 36 2.4 31 -0.6 81 81 Calm 30.36 1028 10 16 0.00 0.00
6:15 am 06:15 Mostly Cloudy 36 2.2 31 -0.6 82 82 WNW 6 9 30.37 1028 10 16 0.00 0.00
6:35 am 06:35 Cloudy 36 2.3 31 -0.4 83 83 W 3 6 30.37 1028 10 16 0.00 0.00
6:55 am 06:55 Mostly Cloudy 36 2.3 31 -0.5 82 82 Calm 30.37 1028 10 16 0.00 0.00
7:15 am 07:15 Cloudy 37 2.5 32 -0.1 83 83 Calm 30.37 1028 10 16 0.00 0.00
7:35 am 07:35 Cloudy 37 2.6 32 -0.1 83 83 Calm 30.36 1028 10 16 0.00 0.00
7:55 am 07:55 Cloudy 36 2.2 32 0.1 86 86 Calm 30.36 1028 10 16 0.00 0.00
8:15 am 08:15 Cloudy 37 2.5 32 0.1 84 84 S 3 6 30.36 1028 10 16 0.00 0.00
8:35 am 08:35 Cloudy 37 2.8 33 0.3 84 84 Calm 30.37 1028 10 16 0.00 0.00
8:55 am 08:55 Cloudy 37 3 34 1 87 87 SSW 3 6 30.38 1029 10 16 0.00 0.00
9:15 am 09:15 Cloudy 38 3.4 33 0.8 83 83 Calm 30.38 1029 10 16 0.00 0.00
9:35 am 09:35 Cloudy 39 3.8 34 1.2 83 83 SSW 3 6 30.39 1029 10 16 0.00 0.00
9:55 am 09:55 Cloudy 40 4.3 35 1.4 82 82 SW 5 7 30.39 1029 10 16 0.00 0.00
10:15 am 10:15 Cloudy 40 4.7 33 0.7 76 76 W 5 7 30.39 1029 10 16 0.00 0.00
10:35 am 10:35 Cloudy 41 5.2 34 1 75 75 W 3 6 30.39 1029 10 16 0.00 0.00
10:55 am 10:55 Cloudy 42 5.4 32 0.2 69 69 NW 5 7 30.39 1029 10 16 0.00 0.00
11:15 am 11:15 Cloudy 44 6.6 33 0.3 64 64 WNW 5 7 30.40 1029 10 16 0.00 0.00
11:35 am 11:35 Cloudy 46 7.6 31 -0.8 56 56 NNW 8 13 30.40 1029 10 16 0.00 0.00
11:55 am 11:55 Partly Cloudy 45 7.1 28 -2 53 53 N 7 11 30.39 1029 10 16 0.00 0.00
12:15 pm 12:15 Partly Cloudy 47 8.2 28 -2.1 49 49 WNW 8 13 30.38 1029 10 16 0.00 0.00
12:35 pm 12:35 Sunny 47 8.4 27 -2.7 46 46 NNW 7 11 30.38 1029 10 16 0.00 0.00
12:55 pm 12:55 Partly Cloudy 46 7.8 26 -3.5 45 45 Calm 30.37 1029 10 16 0.00 0.00
1:15 pm 13:15 Mostly Cloudy 47 8.3 26 -3.2 44 44 WNW 9 15 30.36 1028 10 16 0.00 0.00
1:35 pm 13:35 Mostly Cloudy 48 8.8 25 -3.9 41 41 WSW 9 15 30.35 1028 10 16 0.00 0.00
1:55 pm 13:55 Mostly Cloudy 47 8.5 24 -4.2 41 41 W 12 19 30.34 1028 10 16 0.00 0.00
2:15 pm 14:15 Partly Cloudy 47 8.4 23 -5.1 38 38 W 9 15 30.34 1028 10 16 0.00 0.00
2:35 pm 14:35 Partly Cloudy 47 8.2 23 -5.1 39 39 WNW 7 11 30.33 1027 10 16 0.00 0.00
3:35 pm 15:35 Partly Cloudy 47 8.5 24 -4.7 39 39 WNW 12 19 30.33 1027 10 16 0.00 0.00
3:55 pm 15:55 Partly Cloudy 48 8.9 22 -5.4 36 36 NNW 9 15 30.32 1027 10 16 0.00 0.00
4:15 pm 16:15 Partly Cloudy 48 8.9 23 -4.9 38 38 NNW 9 15 30.32 1027 10 16 0.00 0.00
4:35 pm 16:35 Sunny 47 8.3 22 -5.6 37 37 NW 12 19 30.32 1027 10 16 0.00 0.00
4:55 pm 16:55 Sunny 47 8.5 21 -6.3 35 35 WNW 7 11 30.33 1027 10 16 0.00 0.00
5:15 pm 17:15 Partly Cloudy 46 7.5 22 -5.8 39 39 WNW 9 15 30.34 1027 10 16 0.00 0.00
5:35 pm 17:35 Partly Cloudy 47 8.2 21 -6 36 36 W 10 17 30.33 1027 10 16 0.00 0.00
5:55 pm 17:55 Partly Cloudy 44 6.9 22 -5.8 40 40 WNW 9 15 30.35 1028 10 16 0.00 0.00
6:15 pm 18:15 Sunny 44 6.4 22 -5.4 43 43 W 6 9 30.34 1027 10 16 0.00 0.00
6:35 pm 18:35 Clear 41 5.2 23 -5.1 48 48 W 5 7 30.34 1027 10 16 0.00 0.00
6:55 pm 18:55 Clear 38 3.6 28 -2.2 66 66 WNW 5 7 30.36 1028 10 16 0.00 0.00
7:15 pm 19:15 Clear 37 2.5 29 -1.6 75 75 W 5 7 30.36 1028 10 16 0.00 0.00
7:35 pm 19:35 Clear 36 2.2 29 -1.4 77 77 NW 3 6 30.36 1028 10 16 0.00 0.00
7:55 pm 19:55 Clear 35 1.6 30 -1.1 82 82 Calm 30.37 1028 10 16 0.00 0.00
8:15 pm 20:15 Clear 34 1.3 31 -0.7 87 87 NW 3 6 30.37 1029 10 16 0.00 0.00
8:35 pm 20:35 Clear 34 1.3 31 -0.7 87 87 WNW 3 6 30.38 1029 10 16 0.00 0.00
8:55 pm 20:55 Clear 33 0.3 29 -1.7 87 87 Calm 30.38 1029 10 16 0.00 0.00
9:15 pm 21:15 Clear 33 0.3 28 -2 85 85 NNW 3 6 30.38 1029 10 16 0.00 0.00
9:35 pm 21:35 Clear 35 1.5 28 -2.4 76 76 NW 3 6 30.38 1029 10 16 0.00 0.00
9:55 pm 21:55 Clear 32 0.1 27 -2.6 82 82 WNW 5 7 30.41 1030 10 16 0.00 0.00
10:15 pm 22:15 Clear 32 0.1 26 -3.4 78 78 NW 6 9 30.41 1030 10 16 0.00 0.00
10:35 pm 22:35 Clear 34 0.9 26 -3.5 73 73 WNW 7 11 30.41 1030 10 16 0.00 0.00
10:55 pm 22:55 Clear 34 1.1 25 -3.7 71 71 NW 7 11 30.42 1030 10 16 0.00 0.00
11:15 pm 23:15 Clear 33 0.7 25 -3.8 72 72 NW 5 7 30.42 1030 10 16 0.00 0.00
11:35 pm 23:35 Clear 33 0.3 26 -3.1 78 78 NNW 3 6 30.41 1030 10 16 0.00 0.00
11:55 pm 23:55 Clear 32 0.2 26 -3.3 78 78 NNW 3 6 30.42 1030 10 16 0.00 0.00

Powered by AerisWeather